N7LK Weather Reports


time (UTC)temp
F
wind
direction
speed
knots
gust
knots
rain 1hr
in
rain 24hr
in
rain mn
in
humidity
%
barometer
mb
20260903135343 85 333 0.0 1.7 0.00 0.00 0.00 57 1011.2
20260903134334 85 340 1.7 3.5 0.00 0.00 0.00 56 1011.0
20260903133341 85 313 0.9 2.6 0.00 0.00 0.00 56 1010.9
20260903132326 85 302 0.0 3.5 0.00 0.00 0.00 55 1010.7
20260903131334 85 261 2.6 5.2 0.00 0.00 0.00 54 1010.6
20260903130345 85 288 0.0 6.1 0.00 0.00 0.00 54 1010.5
20260903125332 85 259 1.7 6.1 0.00 0.00 0.00 54 1010.5
20260903124340 86 298 2.6 7.8 0.00 0.00 0.00 54 1010.4
20260903123347 86 261 2.6 6.1 0.00 0.00 0.00 54 1010.3
20260903122339 86 240 3.5 7.0 0.00 0.00 0.00 53 1010.2
20260903121326 86 267 2.6 6.1 0.00 0.00 0.00 53 1010.2
20260903120333 86 257 0.9 5.2 0.00 0.00 0.00 52 1010.1
20260903115340 87 223 5.2 8.7 0.00 0.00 0.00 52 1010.0
20260903114330 87 267 0.0 4.3 0.00 0.00 0.00 51 1010.0
20260903113337 87 222 0.9 6.1 0.00 0.00 0.00 50 1010.0
20260903112343 87 217 1.7 4.3 0.00 0.00 0.00 49 1009.8
20260903111331 87 301 3.5 5.2 0.00 0.00 0.00 49 1009.8
20260903110401 88 256 2.6 6.1 0.00 0.00 0.00 48 1009.7
20260903105327 88 269 3.5 7.8 0.00 0.00 0.00 47 1009.8
20260903104355 88 257 2.6 9.6 0.00 0.00 0.00 47 1009.8
20260903103402 88 257 1.7 6.1 0.00 0.00 0.00 46 1009.9
20260903102328 88 292 2.6 9.6 0.00 0.00 0.00 46 1009.9
20260903101339 88 271 3.5 9.6 0.00 0.00 0.00 46 1009.9
20260903100327 88 302 2.6 7.0 0.00 0.00 0.00 42 1009.9
20260903095334 88 34 0.0 1.7 0.00 0.00 0.00 35 1010.0
20260903094340 89 337 0.0 0.9 0.00 0.00 0.00 34 1009.9
20260903093331 89 279 0.0 3.5 0.00 0.00 0.00 33 1009.8
20260903092337 89 281 0.0 2.6 0.00 0.00 0.00 32 1009.8
20260903091346 89 259 0.9 4.3 0.00 0.00 0.00 31 1009.7
20260903090331 89 277 1.7 6.1 0.00 0.00 0.00 30 1009.7
20260903085342 89 261 1.7 3.5 0.00 0.00 0.00 29 1009.7
20260903084330 89 304 0.9 5.2 0.00 0.00 0.00 27 1009.7
20260903083336 89 341 0.0 2.6 0.00 0.00 0.00 27 1009.8
20260903082343 90 326 0.0 0.9 0.00 0.00 0.00 28 1009.8
20260903081335 90 268 0.0 1.7 0.00 0.00 0.00 26 1009.8
20260903080341 90 313 0.0 2.6 0.00 0.00 0.00 26 1009.7
20260903075328 90 258 0.0 1.7 0.00 0.00 0.00 25 1009.7
20260903074334 90 240 0.0 1.7 0.00 0.00 0.00 25 1009.6
20260903073326 90 260 0.0 1.7 0.00 0.00 0.00 26 1009.6
20260903072353 90 213 0.0 1.7 0.00 0.00 0.00 26 1009.6
20260903071337 91 189 0.0 0.0 0.00 0.00 0.00 28 1009.7
20260903070344 91 189 0.0 0.0 0.00 0.00 0.00 28 1009.6
20260903065335 91 189 0.0 0.9 0.00 0.00 0.00 27 1009.5
20260903064341 92 215 0.0 1.7 0.00 0.00 0.00 27 1009.4
20260903063348 92 231 0.9 1.7 0.00 0.00 0.00 27 1009.3
20260903062334 93 221 0.9 2.6 0.00 0.00 0.00 27 1009.2
20260903061345 93 235 0.9 2.6 0.00 0.00 0.00 28 1009.3
20260903060352 94 216 0.9 3.5 0.00 0.00 0.00 28 1009.3
20260903055338 94 250 1.7 5.2 0.00 0.00 0.00 27 1009.2
20260903054405 94 227 1.7 6.1 0.00 0.00 0.00 26 1009.1
20260903053351 94 229 0.9 5.2 0.00 0.00 0.00 28 1009.2
20260903052342 95 296 1.7 7.8 0.00 0.00 0.00 29 1009.3
20260903051349 95 254 2.6 8.7 0.00 0.00 0.00 32 1009.3
20260903050355 95 259 3.5 6.1 0.00 0.00 0.00 35 1009.3
20260903045400 95 222 1.7 4.3 0.00 0.00 0.00 36 1009.3
20260903044326 96 220 2.6 6.1 0.00 0.00 0.00 35 1009.2
20260903043338 96 240 1.7 4.3 0.00 0.00 0.00 35 1009.2
20260903042326 96 269 1.7 4.3 0.00 0.00 0.00 35 1009.2
20260903041333 96 260 0.9 4.3 0.00 0.00 0.00 34 1009.2
20260903040325 96 254 2.6 6.1 0.00 0.00 0.00 33 1009.1
20260903035331 97 249 0.9 3.5 0.00 0.00 0.00 33 1008.9
20260903034337 97 246 1.7 7.0 0.00 0.00 0.00 32 1008.9
20260903033344 97 270 2.6 7.8 0.00 0.00 0.00 32 1008.9
20260903032350 97 231 4.3 7.0 0.00 0.00 0.00 31 1008.8
20260903031338 98 227 1.7 5.2 0.00 0.00 0.00 29 1008.7
20260903030346 98 244 3.5 8.7 0.00 0.00 0.00 29 1008.6
20260903025332 98 273 4.3 9.6 0.00 0.00 0.00 29 1008.5
20260903024338 98 273 2.6 7.8 0.00 0.00 0.00 30 1008.5
20260903023330 98 207 3.5 9.6 0.00 0.00 0.00 30 1008.3
20260903022337 98 267 3.5 6.1 0.00 0.00 0.00 29 1008.2
20260903021343 98 279 1.7 5.2 0.00 0.00 0.00 29 1008.2
20260903020335 99 250 3.5 7.8 0.00 0.00 0.00 28 1008.1
20260903015342 99 271 2.6 5.2 0.00 0.00 0.00 28 1008.0
20260903014330 99 268 1.7 5.2 0.00 0.00 0.00 28 1008.0
20260903013336 100 292 0.9 5.2 0.00 0.00 0.00 28 1007.9
20260903012403 100 274 3.5 8.7 0.00 0.00 0.00 28 1007.9
20260903011354 100 244 2.6 9.6 0.00 0.00 0.00 28 1007.9
20260903010340 101 252 4.3 9.6 0.00 0.00 0.00 28 1007.9
20260903005327 102 263 2.6 8.7 0.00 0.00 0.00 27 1007.9
20260903004354 102 255 1.7 7.0 0.00 0.00 0.00 28 1007.8
20260903003343 102 273 2.6 10.4 0.00 0.00 0.00 28 1007.9
20260903002330 102 293 1.7 8.7 0.00 0.00 0.00 27 1007.8
20260903001339 102 236 2.6 10.4 0.00 0.00 0.00 28 1007.9
20260903000406 102 273 4.3 10.4 0.00 0.00 0.00 27 1008.0
20260902235335 102 265 3.5 11.3 0.00 0.00 0.00 27 1008.1
20260902234403 103 297 2.6 7.0 0.00 0.00 0.00 27 1008.2
20260902233348 102 294 3.5 11.3 0.00 0.00 0.00 27 1008.3
20260902232335 103 253 6.1 8.7 0.00 0.00 0.00 27 1008.4
20260902231342 102 44 0.9 10.4 0.00 0.00 0.00 27 1008.4
20260902230334 102 182 3.5 11.3 0.00 0.00 0.00 27 1008.6
20260902225341 103 121 5.2 13.0 0.00 0.00 0.00 26 1008.7
20260902224327 104 259 5.2 12.2 0.00 0.00 0.00 26 1008.9
20260902223338 103 162 1.7 8.7 0.00 0.00 0.00 26 1008.9
20260902222326 103 229 5.2 12.2 0.00 0.00 0.00 26 1009.1
20260902221333 103 303 4.3 10.4 0.00 0.00 0.00 26 1009.2
20260902220359 103 263 2.6 8.7 0.00 0.00 0.00 25 1009.3
20260902215330 103 215 3.5 9.6 0.00 0.00 0.00 25 1009.5
20260902214337 103 212 3.5 10.4 0.00 0.00 0.00 25 1009.6
20260902213344 103 268 5.2 12.2 0.00 0.00 0.00 25 1009.6
20260902212330 103 205 3.5 10.4 0.00 0.00 0.00 26 1009.8
20260902211341 103 185 5.2 8.7 0.00 0.00 0.00 26 1009.9
20260902210329 103 215 3.5 10.4 0.00 0.00 0.00 25 1010.0
20260902205336 102 270 1.7 8.7 0.00 0.00 0.00 25 1010.1
20260902204403 102 215 2.6 7.0 0.00 0.00 0.00 25 1010.2
20260902203332 102 269 2.6 9.6 0.00 0.00 0.00 26 1010.5
20260902202340 102 284 5.2 10.4 0.00 0.00 0.00 27 1010.7
20260902201328 101 360 0.9 7.0 0.00 0.00 0.00 28 1010.9
20260902200335 101 194 1.7 7.0 0.00 0.00 0.00 29 1011.1
20260902195343 100 265 5.2 8.7 0.00 0.00 0.00 29 1011.2
20260902194330 100 294 4.3 8.7 0.00 0.00 0.00 29 1011.4
20260902193338 100 178 3.5 7.0 0.00 0.00 0.00 29 1011.5
20260902192346 100 93 0.9 7.8 0.00 0.00 0.00 29 1011.7
20260902191356 100 215 4.3 8.7 0.00 0.00 0.00 29 1011.8
20260902190341 100 211 2.6 7.8 0.00 0.00 0.00 30 1012.0
20260902185349 99 307 2.6 7.8 0.00 0.00 0.00 30 1012.1
20260902184332 99 217 2.6 7.0 0.00 0.00 0.00 30 1012.2
20260902183338 99 291 1.7 8.7 0.00 0.00 0.00 31 1012.3
20260902182330 99 223 2.6 5.2 0.00 0.00 0.00 31 1012.4
20260902181335 99 63 0.9 7.0 0.00 0.00 0.00 32 1012.5
20260902180342 98 103 0.9 7.8 0.00 0.00 0.00 34 1012.6
20260902175329 98 195 4.3 7.0 0.00 0.00 0.00 34 1012.7
20260902174340 97 165 1.7 5.2 0.00 0.00 0.00 35 1012.8
20260902173407 97 293 0.0 4.3 0.00 0.00 0.00 38 1012.8
20260902172332 96 313 0.9 2.6 0.00 0.00 0.00 38 1012.9
20260902171339 95 116 1.7 3.5 0.00 0.00 0.00 39 1012.9
20260902170329 95 37 2.6 4.3 0.00 0.00 0.00 40 1013.0
20260902165335 95 78 2.6 7.0 0.00 0.00 0.00 40 1013.0
20260902164402 94 220 0.9 2.6 0.00 0.00 0.00 41 1012.9
20260902163328 95 28 3.5 4.3 0.00 0.00 0.00 41 1012.9
20260902162338 94 146 0.9 3.5 0.00 0.00 0.00 42 1012.9
20260902161327 94 98 0.9 3.5 0.00 0.00 0.00 42 1012.9
20260902160333 93 76 1.7 3.5 0.00 0.00 0.00 44 1012.9
20260902155340 93 355 0.0 3.5 0.00 0.00 0.00 44 1013.0
20260902154330 92 76 1.7 3.5 0.00 0.00 0.00 46 1012.8
20260902153337 91 360 0.0 1.7 0.00 0.00 0.00 48 1012.9
20260902152344 91 52 1.7 3.5 0.00 0.00 0.00 49 1012.9
20260902151331 90 346 1.7 3.5 0.00 0.00 0.00 50 1012.9
20260902150342 89 19 1.7 2.6 0.00 0.00 0.00 52 1012.8
20260902145328 88 88 0.9 5.2 0.00 0.00 0.00 53 1012.6
20260902144334 87 60 0.9 3.5 0.00 0.00 0.00 55 1012.5
20260902143341 87 109 0.9 5.2 0.00 0.00 0.00 55 1012.5
20260902142332 86 84 0.9 3.5 0.00 0.00 0.00 56 1012.4
20260902141339 85 90 1.7 3.5 0.00 0.00 0.00 57 1012.3
20260902140327 85 98 0.9 1.7 0.00 0.00 0.00 59 1012.3